Time,TemperatureF,DewpointF,PressureIn,WindDirection,WindDirectionDegrees,WindSpeedMPH,WindSpeedGustMPH,Humidity,HourlyPrecipIn,Conditions,Clouds,dailyrainin,SoftwareType,DateUTC
2013-08-13 00:02:00,73.9,71.4,29.97,SW,221,0.0,0.0,92,0.00,,---,0.01,VWS V13.01,2013-08-13 05:02:00,
2013-08-13 00:07:00,73.8,71.3,29.97,SW,221,0.0,0.0,92,0.00,,---,0.00,VWS V13.01,2013-08-13 05:07:00,
2013-08-13 00:12:00,73.7,71.2,29.97,SW,221,0.0,0.0,92,0.00,,---,0.00,VWS V13.01,2013-08-13 05:12:00,
2013-08-13 00:17:00,73.6,71.1,29.96,SW,221,0.0,0.0,92,0.00,,---,0.00,VWS V13.01,2013-08-13 05:17:00,
2013-08-13 00:23:00,73.5,71.0,29.96,SW,221,0.0,0.0,92,0.00,,---,0.00,VWS V13.01,2013-08-13 05:23:00,
2013-08-13 00:28:00,73.5,71.4,29.96,SW,221,0.0,0.0,93,0.00,,---,0.00,VWS V13.01,2013-08-13 05:28:00,
2013-08-13 00:33:00,73.5,71.4,29.95,SW,221,0.0,0.0,93,0.00,,---,0.00,VWS V13.01,2013-08-13 05:33:00,
2013-08-13 00:38:00,73.5,71.4,29.96,SW,221,0.0,0.0,93,0.00,,---,0.00,VWS V13.01,2013-08-13 05:38:00,
2013-08-13 00:43:00,73.5,71.4,29.95,SW,221,0.0,0.0,93,0.00,,---,0.00,VWS V13.01,2013-08-13 05:43:00,
2013-08-13 00:48:00,73.5,71.4,29.95,SW,221,0.0,0.0,93,0.00,,---,0.00,VWS V13.01,2013-08-13 05:48:00,
2013-08-13 00:53:00,73.5,71.4,29.95,SW,221,0.0,0.0,93,0.00,,---,0.00,VWS V13.01,2013-08-13 05:53:00,
2013-08-13 00:58:00,73.5,71.4,29.95,SW,221,0.0,0.0,93,0.00,,---,0.00,VWS V13.01,2013-08-13 05:58:00,
2013-08-13 01:02:00,73.5,71.4,29.95,SW,221,0.0,0.0,93,0.00,,---,0.00,VWS V13.01,2013-08-13 06:02:00,
2013-08-13 01:07:00,73.4,71.3,29.95,SW,221,0.0,0.0,93,0.00,,---,0.00,VWS V13.01,2013-08-13 06:07:00,
2013-08-13 01:13:00,73.4,71.3,29.95,SW,221,0.0,0.0,93,0.00,,---,0.00,VWS V13.01,2013-08-13 06:13:00,
2013-08-13 01:18:00,73.3,71.2,29.94,SW,221,0.0,0.0,93,0.00,,---,0.00,VWS V13.01,2013-08-13 06:18:00,
2013-08-13 01:23:00,73.3,71.2,29.95,SW,221,0.0,0.0,93,0.00,,---,0.00,VWS V13.01,2013-08-13 06:23:00,
2013-08-13 01:28:00,73.3,71.2,29.95,SW,221,0.0,0.0,93,0.00,,---,0.00,VWS V13.01,2013-08-13 06:28:00,
2013-08-13 01:33:00,73.3,71.2,29.95,SW,221,0.0,0.0,93,0.00,,---,0.00,VWS V13.01,2013-08-13 06:33:00,
2013-08-13 01:38:00,73.2,71.1,29.95,SW,221,0.0,0.0,93,0.00,,---,0.00,VWS V13.01,2013-08-13 06:38:00,
2013-08-13 01:43:00,73.2,71.1,29.95,SW,221,0.0,0.0,93,0.00,,---,0.00,VWS V13.01,2013-08-13 06:43:00,
2013-08-13 01:48:00,73.2,71.1,29.95,SW,221,0.0,0.0,93,0.00,,---,0.00,VWS V13.01,2013-08-13 06:48:00,
2013-08-13 01:53:00,73.2,71.1,29.95,SW,221,0.0,0.0,93,0.00,,---,0.00,VWS V13.01,2013-08-13 06:53:00,
2013-08-13 01:58:00,73.3,71.2,29.95,SW,221,0.0,0.0,93,0.00,,---,0.00,VWS V13.01,2013-08-13 06:58:00,
2013-08-13 02:03:00,73.4,71.6,29.96,SW,221,0.0,0.0,94,0.00,,---,0.00,VWS V13.01,2013-08-13 07:03:00,
2013-08-13 02:08:00,73.5,71.7,29.95,SW,221,0.0,0.0,94,0.00,,---,0.00,VWS V13.01,2013-08-13 07:08:00,
2013-08-13 02:13:00,73.8,72.0,29.95,SW,221,0.0,6.0,94,0.00,,---,0.00,VWS V13.01,2013-08-13 07:13:00,
2013-08-13 02:18:00,73.8,72.0,29.95,South,176,2.0,6.0,94,0.00,,---,0.00,VWS V13.01,2013-08-13 07:18:00,
2013-08-13 02:23:00,73.8,72.0,29.95,South,190,0.0,11.0,94,0.00,,---,0.00,VWS V13.01,2013-08-13 07:23:00,
2013-08-13 02:28:00,73.7,71.9,29.95,South,191,3.0,11.0,94,0.00,,---,0.00,VWS V13.01,2013-08-13 07:28:00,
2013-08-13 02:33:00,73.5,71.7,29.95,South,190,0.0,11.0,94,0.00,,---,0.00,VWS V13.01,2013-08-13 07:33:00,
2013-08-13 02:38:00,73.4,71.6,29.95,South,191,0.0,4.0,94,0.00,,---,0.00,VWS V13.01,2013-08-13 07:38:00,
2013-08-13 02:43:00,73.3,71.5,29.95,South,191,0.0,4.0,94,0.00,,---,0.00,VWS V13.01,2013-08-13 07:43:00,
2013-08-13 02:48:00,73.2,71.4,29.94,South,191,0.0,4.0,94,0.00,,---,0.00,VWS V13.01,2013-08-13 07:48:00,
2013-08-13 02:53:00,73.1,71.3,29.94,South,191,0.0,4.0,94,0.00,,---,0.00,VWS V13.01,2013-08-13 07:53:00,
2013-08-13 02:58:00,73.1,71.3,29.95,South,191,0.0,4.0,94,0.00,,---,0.00,VWS V13.01,2013-08-13 07:58:00,
2013-08-13 03:03:00,73.1,71.3,29.95,South,191,0.0,4.0,94,0.01,,---,0.01,VWS V13.01,2013-08-13 08:03:00,
2013-08-13 03:08:00,73.0,71.2,29.95,South,191,0.0,0.0,94,0.03,,---,0.03,VWS V13.01,2013-08-13 08:08:00,
2013-08-13 03:13:00,73.0,71.2,29.95,South,191,0.0,4.0,94,0.03,,---,0.03,VWS V13.01,2013-08-13 08:13:00,
2013-08-13 03:18:00,73.0,71.2,29.95,South,191,1.0,4.0,94,0.03,,---,0.03,VWS V13.01,2013-08-13 08:18:00,
2013-08-13 03:23:00,72.9,71.1,29.96,South,188,0.0,4.0,94,0.03,,---,0.03,VWS V13.01,2013-08-13 08:23:00,
2013-08-13 03:28:00,72.9,71.1,29.95,South,188,0.0,4.0,94,0.03,,---,0.03,VWS V13.01,2013-08-13 08:28:00,
2013-08-13 03:33:00,72.9,71.1,29.95,South,188,0.0,4.0,94,0.03,,---,0.03,VWS V13.01,2013-08-13 08:33:00,
2013-08-13 03:38:00,73.0,71.2,29.95,South,188,0.0,4.0,94,0.03,,---,0.03,VWS V13.01,2013-08-13 08:38:00,
2013-08-13 03:43:00,73.0,71.2,29.95,South,188,0.0,5.0,94,0.03,,---,0.03,VWS V13.01,2013-08-13 08:43:00,
2013-08-13 03:48:00,73.0,71.2,29.95,South,188,0.0,5.0,94,0.03,,---,0.03,VWS V13.01,2013-08-13 08:48:00,
2013-08-13 03:53:00,73.0,71.2,29.96,South,188,0.0,5.0,94,0.03,,---,0.03,VWS V13.01,2013-08-13 08:53:00,
2013-08-13 03:58:00,72.9,71.1,29.97,South,188,0.0,5.0,94,0.03,,---,0.03,VWS V13.01,2013-08-13 08:58:00,
2013-08-13 04:03:00,72.9,71.1,29.98,South,188,0.0,5.0,94,0.03,,---,0.03,VWS V13.01,2013-08-13 09:03:00,
2013-08-13 04:08:00,72.9,71.1,29.97,South,188,0.0,0.0,94,0.00,,---,0.03,VWS V13.01,2013-08-13 09:08:00,
2013-08-13 04:13:00,72.9,71.1,29.96,South,188,0.0,3.0,94,0.00,,---,0.03,VWS V13.01,2013-08-13 09:13:00,
2013-08-13 04:18:00,72.9,71.1,29.96,South,188,0.0,3.0,94,0.00,,---,0.03,VWS V13.01,2013-08-13 09:18:00,
2013-08-13 04:23:00,72.9,71.1,29.97,South,188,0.0,3.0,94,0.00,,---,0.03,VWS V13.01,2013-08-13 09:23:00,
2013-08-13 04:28:00,72.9,71.1,29.95,NE,38,4.0,5.0,94,0.00,,---,0.03,VWS V13.01,2013-08-13 09:28:00,
2013-08-13 04:33:00,73.0,71.5,29.94,ENE,71,0.0,7.0,95,0.05,,---,0.09,VWS V13.01,2013-08-13 09:33:00,
2013-08-13 04:38:00,73.0,71.5,29.94,ENE,65,4.0,5.0,95,0.06,,---,0.09,VWS V13.01,2013-08-13 09:38:00,
2013-08-13 04:43:00,73.0,71.5,29.95,NE,55,0.0,7.0,95,0.07,,---,0.10,VWS V13.01,2013-08-13 09:43:00,
2013-08-13 04:48:00,73.0,71.5,29.95,NE,55,0.0,7.0,95,0.07,,---,0.10,VWS V13.01,2013-08-13 09:48:00,
2013-08-13 04:53:00,73.0,71.5,29.96,NE,55,0.0,7.0,95,0.07,,---,0.10,VWS V13.01,2013-08-13 09:53:00,
2013-08-13 04:58:00,73.0,71.5,29.97,NE,55,0.0,7.0,95,0.07,,---,0.10,VWS V13.01,2013-08-13 09:58:00,
2013-08-13 05:03:00,73.0,71.5,29.97,NE,55,0.0,7.0,95,0.07,,---,0.10,VWS V13.01,2013-08-13 10:03:00,
2013-08-13 05:08:00,73.0,71.5,29.97,NE,55,0.0,0.0,95,0.07,,---,0.10,VWS V13.01,2013-08-13 10:08:00,
2013-08-13 05:13:00,73.0,71.5,29.96,NE,55,0.0,0.0,95,0.07,,---,0.10,VWS V13.01,2013-08-13 10:13:00,
2013-08-13 05:18:00,73.0,71.5,29.96,NE,55,0.0,0.0,95,0.08,,---,0.11,VWS V13.01,2013-08-13 10:18:00,
2013-08-13 05:23:00,73.0,71.5,29.98,NE,55,0.0,0.0,95,0.08,,---,0.11,VWS V13.01,2013-08-13 10:23:00,
2013-08-13 05:28:00,73.1,71.6,29.97,NE,55,0.0,2.0,95,0.08,,---,0.11,VWS V13.01,2013-08-13 10:28:00,
2013-08-13 05:33:00,73.1,71.6,29.98,West,281,0.0,3.0,95,0.09,,---,0.12,VWS V13.01,2013-08-13 10:33:00,
2013-08-13 05:38:00,73.1,71.6,29.98,WNW,282,0.0,0.0,95,0.03,,---,0.12,VWS V13.01,2013-08-13 10:38:00,
2013-08-13 05:43:00,73.1,71.6,29.99,West,277,0.0,3.0,95,0.03,,---,0.12,VWS V13.01,2013-08-13 10:43:00,
2013-08-13 05:48:00,73.1,71.6,29.99,WNW,284,0.0,5.0,95,0.03,,---,0.12,VWS V13.01,2013-08-13 10:48:00,
2013-08-13 05:53:00,72.8,71.3,29.99,West,276,0.0,6.0,95,0.04,,---,0.13,VWS V13.01,2013-08-13 10:53:00,
2013-08-13 05:58:00,72.6,71.1,29.99,West,280,0.0,6.0,95,0.05,,---,0.14,VWS V13.01,2013-08-13 10:58:00,
2013-08-13 06:03:00,72.4,70.9,29.99,NW,323,0.0,6.0,95,0.06,,---,0.15,VWS V13.01,2013-08-13 11:03:00,
2013-08-13 06:08:00,72.1,70.3,29.99,WNW,300,4.0,5.0,94,0.06,,---,0.16,VWS V13.01,2013-08-13 11:08:00,
2013-08-13 06:13:00,71.9,70.1,29.99,NW,310,0.0,6.0,94,0.07,,---,0.17,VWS V13.01,2013-08-13 11:13:00,
2013-08-13 06:18:00,71.8,70.3,29.99,WNW,294,0.0,7.0,95,0.08,,---,0.18,VWS V13.01,2013-08-13 11:18:00,
2013-08-13 06:23:00,71.7,70.2,29.99,WNW,298,0.0,7.0,95,0.09,,---,0.19,VWS V13.01,2013-08-13 11:23:00,
2013-08-13 06:28:00,71.7,70.2,29.99,WNW,298,0.0,7.0,95,0.10,,---,0.20,VWS V13.01,2013-08-13 11:28:00,
2013-08-13 06:33:00,71.6,70.1,29.99,WNW,298,0.0,7.0,95,0.11,,---,0.21,VWS V13.01,2013-08-13 11:33:00,
2013-08-13 06:38:00,71.6,70.1,29.99,WNW,298,0.0,0.0,95,0.10,,---,0.23,VWS V13.01,2013-08-13 11:38:00,
2013-08-13 06:43:00,71.5,70.0,29.98,WNW,298,0.0,0.0,95,0.12,,---,0.24,VWS V13.01,2013-08-13 11:43:00,
2013-08-13 06:48:00,71.5,70.0,29.98,WNW,298,0.0,0.0,95,0.12,,---,0.24,VWS V13.01,2013-08-13 11:48:00,
2013-08-13 06:53:00,71.5,70.0,29.98,WNW,298,0.0,0.0,95,0.12,,---,0.24,VWS V13.01,2013-08-13 11:53:00,
2013-08-13 06:58:00,71.5,70.0,29.98,WNW,298,0.0,0.0,95,0.12,,---,0.24,VWS V13.01,2013-08-13 11:58:00,
2013-08-13 07:03:00,71.5,70.0,29.99,WNW,298,0.0,0.0,95,0.12,,---,0.24,VWS V13.01,2013-08-13 12:03:00,
2013-08-13 07:08:00,71.5,70.0,29.98,WNW,298,0.0,0.0,95,0.08,,---,0.24,VWS V13.01,2013-08-13 12:08:00,
2013-08-13 07:13:00,71.6,70.1,29.98,WNW,298,0.0,0.0,95,0.08,,---,0.24,VWS V13.01,2013-08-13 12:13:00,
2013-08-13 07:18:00,71.7,70.2,29.98,NW,304,0.0,0.0,95,0.08,,---,0.24,VWS V13.01,2013-08-13 12:18:00,
2013-08-13 07:23:00,71.7,70.2,29.99,NW,304,0.0,0.0,95,0.08,,---,0.24,VWS V13.01,2013-08-13 12:23:00,
2013-08-13 07:28:00,71.8,70.3,29.99,NW,305,0.0,0.0,95,0.08,,---,0.24,VWS V13.01,2013-08-13 12:28:00,
2013-08-13 07:33:00,71.8,70.3,29.99,NW,305,0.0,0.0,95,0.08,,---,0.24,VWS V13.01,2013-08-13 12:33:00,
2013-08-13 07:38:00,71.9,70.4,29.99,NW,305,0.0,0.0,95,0.02,,---,0.24,VWS V13.01,2013-08-13 12:38:00,
2013-08-13 07:43:00,71.9,70.4,29.99,NW,304,0.0,0.0,95,0.02,,---,0.24,VWS V13.01,2013-08-13 12:43:00,
2013-08-13 07:48:00,72.0,70.5,29.99,NW,305,0.0,0.0,95,0.02,,---,0.24,VWS V13.01,2013-08-13 12:48:00,
2013-08-13 07:53:00,72.1,70.6,29.99,NW,304,0.0,0.0,95,0.03,,---,0.25,VWS V13.01,2013-08-13 12:53:00,
2013-08-13 07:58:00,72.1,70.6,30.00,NW,305,0.0,0.0,95,0.03,,---,0.25,VWS V13.01,2013-08-13 12:58:00,
2013-08-13 08:03:00,72.2,70.7,30.00,NW,305,0.0,1.0,95,0.03,,---,0.25,VWS V13.01,2013-08-13 13:03:00,
2013-08-13 08:08:00,72.3,70.8,30.00,NW,305,0.0,0.0,95,0.01,,---,0.25,VWS V13.01,2013-08-13 13:08:00,
2013-08-13 08:13:00,72.3,70.8,30.00,NW,304,0.0,0.0,95,0.01,,---,0.25,VWS V13.01,2013-08-13 13:13:00,
2013-08-13 08:18:00,72.3,70.8,30.01,NW,305,0.0,0.0,95,0.01,,---,0.25,VWS V13.01,2013-08-13 13:18:00,
2013-08-13 08:23:00,72.3,70.8,30.01,NW,305,0.0,0.0,95,0.01,,---,0.25,VWS V13.01,2013-08-13 13:23:00,
2013-08-13 08:28:00,72.3,70.8,30.01,NW,305,0.0,0.0,95,0.01,,---,0.25,VWS V13.01,2013-08-13 13:28:00,
2013-08-13 08:33:00,72.3,70.8,30.01,NW,304,0.0,0.0,95,0.01,,---,0.25,VWS V13.01,2013-08-13 13:33:00,
2013-08-13 08:38:00,72.3,70.8,30.01,NW,305,0.0,1.0,95,0.01,,---,0.25,VWS V13.01,2013-08-13 13:38:00,
2013-08-13 08:43:00,72.3,70.8,30.01,NW,304,0.0,1.0,95,0.02,,---,0.26,VWS V13.01,2013-08-13 13:43:00,
2013-08-13 08:48:00,72.4,70.9,30.01,NW,305,0.0,1.0,95,0.02,,---,0.26,VWS V13.01,2013-08-13 13:48:00,
2013-08-13 08:53:00,72.4,70.9,30.01,NW,305,0.0,1.0,95,0.03,,---,0.27,VWS V13.01,2013-08-13 13:53:00,
2013-08-13 08:58:00,72.4,70.9,30.01,NW,305,0.0,1.0,95,0.03,,---,0.27,VWS V13.01,2013-08-13 13:58:00,
2013-08-13 09:03:00,72.4,70.9,30.01,NW,304,0.0,1.0,95,0.04,,---,0.28,VWS V13.01,2013-08-13 14:03:00,
2013-08-13 09:08:00,72.4,70.9,30.01,NW,304,0.0,0.0,95,0.03,,---,0.28,VWS V13.01,2013-08-13 14:08:00,
2013-08-13 09:13:00,72.5,71.0,30.02,NW,305,0.0,0.0,95,0.03,,---,0.28,VWS V13.01,2013-08-13 14:13:00,
2013-08-13 09:18:00,72.5,71.0,30.01,NW,305,0.0,0.0,95,0.04,,---,0.29,VWS V13.01,2013-08-13 14:18:00,
2013-08-13 09:23:00,72.4,70.9,30.01,NW,305,0.0,0.0,95,0.04,,---,0.29,VWS V13.01,2013-08-13 14:23:00,
2013-08-13 09:28:00,72.4,70.9,30.01,NW,304,0.0,0.0,95,0.04,,---,0.29,VWS V13.01,2013-08-13 14:28:00,
2013-08-13 09:33:00,72.3,70.8,30.01,NW,304,0.0,0.0,95,0.04,,---,0.29,VWS V13.01,2013-08-13 14:33:00,
2013-08-13 09:38:00,72.3,70.8,30.01,NW,305,0.0,0.0,95,0.05,,---,0.30,VWS V13.01,2013-08-13 14:38:00,
2013-08-13 09:43:00,72.3,70.8,30.01,NW,305,0.0,0.0,95,0.05,,---,0.30,VWS V13.01,2013-08-13 14:43:00,
2013-08-13 09:48:00,72.4,71.2,30.01,NW,305,0.0,0.0,96,0.06,,---,0.31,VWS V13.01,2013-08-13 14:48:00,
2013-08-13 09:54:00,72.4,71.2,30.01,NW,305,0.0,0.0,96,0.06,,---,0.31,VWS V13.01,2013-08-13 14:54:00,
2013-08-13 09:59:00,72.7,71.5,30.02,NW,304,0.0,3.0,96,0.06,,---,0.31,VWS V13.01,2013-08-13 14:59:00,
2013-08-13 10:03:00,72.8,71.6,30.02,NW,305,0.0,3.0,96,0.06,,---,0.31,VWS V13.01,2013-08-13 15:03:00,
2013-08-13 10:08:00,72.9,71.7,30.01,NW,305,0.0,0.0,96,0.03,,---,0.31,VWS V13.01,2013-08-13 15:08:00,
2013-08-13 10:13:00,72.9,71.7,30.02,NW,305,0.0,0.0,96,0.03,,---,0.31,VWS V13.01,2013-08-13 15:13:00,
2013-08-13 10:18:00,72.9,71.7,30.02,NW,305,0.0,0.0,96,0.03,,---,0.31,VWS V13.01,2013-08-13 15:18:00,
2013-08-13 10:23:00,73.0,71.8,30.02,NW,304,0.0,0.0,96,0.03,,---,0.31,VWS V13.01,2013-08-13 15:23:00,
2013-08-13 10:28:00,73.1,71.9,30.02,NW,304,0.0,1.0,96,0.03,,---,0.31,VWS V13.01,2013-08-13 15:28:00,
2013-08-13 10:34:00,73.4,72.2,30.02,NW,304,0.0,1.0,96,0.03,,---,0.31,VWS V13.01,2013-08-13 15:34:00,
2013-08-13 10:39:00,73.4,72.2,30.03,WNW,296,0.0,3.0,96,0.01,,---,0.31,VWS V13.01,2013-08-13 15:39:00,
2013-08-13 10:43:00,73.4,72.2,30.03,West,266,0.0,3.0,96,0.01,,---,0.31,VWS V13.01,2013-08-13 15:43:00,
2013-08-13 10:48:00,73.4,72.2,30.03,West,266,0.0,3.0,96,0.01,,---,0.31,VWS V13.01,2013-08-13 15:48:00,
2013-08-13 10:53:00,73.3,72.1,30.03,West,266,0.0,3.0,96,0.01,,---,0.31,VWS V13.01,2013-08-13 15:53:00,
2013-08-13 10:58:00,73.3,71.8,30.03,West,265,0.0,3.0,95,0.01,,---,0.31,VWS V13.01,2013-08-13 15:58:00,
2013-08-13 11:03:00,73.2,72.0,30.04,West,266,0.0,3.0,96,0.01,,---,0.31,VWS V13.01,2013-08-13 16:03:00,
2013-08-13 11:08:00,73.2,72.0,30.04,West,266,0.0,0.0,96,0.00,,---,0.31,VWS V13.01,2013-08-13 16:08:00,
2013-08-13 11:13:00,73.3,72.1,30.04,West,265,0.0,0.0,96,0.00,,---,0.31,VWS V13.01,2013-08-13 16:13:00,
2013-08-13 11:18:00,73.4,72.2,30.04,West,265,0.0,0.0,96,0.00,,---,0.31,VWS V13.01,2013-08-13 16:18:00,
2013-08-13 11:23:00,73.4,72.2,30.04,NW,313,4.0,5.0,96,0.00,,---,0.31,VWS V13.01,2013-08-13 16:23:00,
2013-08-13 11:28:00,73.4,72.2,30.03,NE,38,0.0,5.0,96,0.01,,---,0.32,VWS V13.01,2013-08-13 16:28:00,
2013-08-13 11:33:00,73.5,72.3,30.03,NW,322,0.0,5.0,96,0.01,,---,0.32,VWS V13.01,2013-08-13 16:33:00,
2013-08-13 11:39:00,73.5,72.3,30.03,NW,315,0.0,1.0,96,0.01,,---,0.32,VWS V13.01,2013-08-13 16:39:00,
2013-08-13 11:44:00,73.5,72.3,30.02,NW,315,0.0,1.0,96,0.01,,---,0.32,VWS V13.01,2013-08-13 16:44:00,
2013-08-13 11:49:00,73.4,71.9,30.01,NW,315,0.0,1.0,95,0.01,,---,0.32,VWS V13.01,2013-08-13 16:49:00,
2013-08-13 11:54:00,73.5,72.3,30.02,NW,318,0.0,1.0,96,0.01,,---,0.32,VWS V13.01,2013-08-13 16:54:00,
2013-08-13 11:59:00,73.6,72.4,30.02,SW,226,0.0,1.0,96,0.01,,---,0.32,VWS V13.01,2013-08-13 16:59:00,
2013-08-13 12:04:00,73.7,72.5,30.01,SW,226,0.0,1.0,96,0.01,,---,0.32,VWS V13.01,2013-08-13 17:04:00,
2013-08-13 12:09:00,73.8,72.6,30.01,SW,226,0.0,0.0,96,0.01,,---,0.32,VWS V13.01,2013-08-13 17:09:00,
2013-08-13 12:14:00,74.0,72.8,30.02,SW,226,0.0,0.0,96,0.01,,---,0.32,VWS V13.01,2013-08-13 17:14:00,
2013-08-13 12:19:00,73.9,72.4,30.02,SW,226,0.0,0.0,95,0.01,,---,0.32,VWS V13.01,2013-08-13 17:19:00,
2013-08-13 12:24:00,73.9,72.4,30.02,SW,226,0.0,1.0,95,0.01,,---,0.32,VWS V13.01,2013-08-13 17:24:00,
2013-08-13 12:28:00,73.9,72.4,30.02,SW,233,0.0,1.0,95,0.01,,---,0.32,VWS V13.01,2013-08-13 17:28:00,
2013-08-13 12:29:00,74.0,72.5,30.02,SW,233,0.0,1.0,95,0.01,,---,0.32,VWS V13.01,2013-08-13 17:29:00,
2013-08-13 12:34:00,74.1,72.6,30.02,WSW,243,0.0,3.0,95,0.01,,---,0.32,VWS V13.01,2013-08-13 17:34:00,
2013-08-13 12:39:00,74.1,72.6,30.02,WNW,296,0.0,0.0,95,0.00,,---,0.32,VWS V13.01,2013-08-13 17:39:00,
2013-08-13 12:44:00,74.2,72.7,30.02,WNW,295,0.0,0.0,95,0.00,,---,0.32,VWS V13.01,2013-08-13 17:44:00,
2013-08-13 12:49:00,74.4,73.2,30.01,NW,309,0.0,3.0,96,0.00,,---,0.32,VWS V13.01,2013-08-13 17:49:00,
2013-08-13 12:54:00,74.8,73.6,30.01,NW,323,0.0,6.0,96,0.00,,---,0.32,VWS V13.01,2013-08-13 17:54:00,
2013-08-13 12:59:00,74.9,73.4,30.01,WNW,301,0.0,6.0,95,0.00,,---,0.32,VWS V13.01,2013-08-13 17:59:00,
2013-08-13 13:04:00,74.9,73.4,30.01,WNW,288,0.0,6.0,95,0.00,,---,0.32,VWS V13.01,2013-08-13 18:04:00,
2013-08-13 13:09:00,74.9,73.4,30.01,NW,308,0.0,0.0,95,0.00,,---,0.32,VWS V13.01,2013-08-13 18:09:00,
2013-08-13 13:14:00,74.9,73.4,30.00,NW,314,0.0,1.0,95,0.00,,---,0.32,VWS V13.01,2013-08-13 18:14:00,
2013-08-13 13:19:00,74.6,72.8,30.00,North,355,0.0,1.0,94,0.00,,---,0.32,VWS V13.01,2013-08-13 18:19:00,
2013-08-13 13:24:00,74.7,72.9,30.00,North,355,0.0,1.0,94,0.00,,---,0.32,VWS V13.01,2013-08-13 18:24:00,
2013-08-13 13:29:00,74.8,73.0,30.00,WSW,238,0.0,1.0,94,0.00,,---,0.32,VWS V13.01,2013-08-13 18:29:00,
2013-08-13 13:34:00,75.1,73.3,29.99,NNW,344,0.0,1.0,94,0.00,,---,0.32,VWS V13.01,2013-08-13 18:34:00,
2013-08-13 13:39:00,75.3,73.5,29.99,NNW,343,0.0,0.0,94,0.00,,---,0.32,VWS V13.01,2013-08-13 18:39:00,
2013-08-13 13:44:00,75.4,73.2,29.99,NNW,343,0.0,0.0,93,0.00,,---,0.32,VWS V13.01,2013-08-13 18:44:00,
2013-08-13 13:49:00,75.6,73.4,29.99,NNW,343,0.0,1.0,93,0.00,,---,0.32,VWS V13.01,2013-08-13 18:49:00,
2013-08-13 13:54:00,75.7,73.2,29.99,NNW,342,0.0,3.0,92,0.00,,---,0.32,VWS V13.01,2013-08-13 18:54:00,
2013-08-13 13:59:00,76.0,73.5,29.99,NNW,343,0.0,3.0,92,0.00,,---,0.32,VWS V13.01,2013-08-13 18:59:00,
2013-08-13 14:04:00,77.0,73.8,29.98,NNW,343,0.0,3.0,90,0.00,,---,0.32,VWS V13.01,2013-08-13 19:04:00,
2013-08-13 14:09:00,77.8,74.0,29.98,NNW,344,0.0,0.0,88,0.00,,---,0.32,VWS V13.01,2013-08-13 19:09:00,
2013-08-13 14:14:00,78.1,73.9,29.98,NW,315,0.0,3.0,87,0.00,,---,0.32,VWS V13.01,2013-08-13 19:14:00,
2013-08-13 14:19:00,78.3,73.4,29.97,NW,314,0.0,3.0,85,0.00,,---,0.32,VWS V13.01,2013-08-13 19:19:00,
2013-08-13 14:24:00,78.3,73.8,29.97,NW,315,0.0,3.0,86,0.00,,---,0.32,VWS V13.01,2013-08-13 19:24:00,
2013-08-13 14:29:00,79.5,74.6,29.96,NW,315,0.0,3.0,85,0.00,,---,0.32,VWS V13.01,2013-08-13 19:29:00,
2013-08-13 14:34:00,79.6,73.6,29.96,ENE,59,0.0,3.0,82,0.00,,---,0.32,VWS V13.01,2013-08-13 19:34:00,
2013-08-13 14:39:00,79.4,73.4,29.96,NE,42,0.0,0.0,82,0.00,,---,0.32,VWS V13.01,2013-08-13 19:39:00,
2013-08-13 14:44:00,80.2,73.5,29.96,NE,55,0.0,4.0,80,0.00,,---,0.32,VWS V13.01,2013-08-13 19:44:00,
2013-08-13 14:49:00,80.4,73.7,29.96,NE,53,0.0,4.0,80,0.00,,---,0.32,VWS V13.01,2013-08-13 19:49:00,
2013-08-13 14:54:00,80.3,73.6,29.95,NE,53,0.0,4.0,80,0.00,,---,0.32,VWS V13.01,2013-08-13 19:54:00,
2013-08-13 14:59:00,80.1,72.6,29.95,NE,53,0.0,4.0,78,0.00,,---,0.32,VWS V13.01,2013-08-13 19:59:00,
2013-08-13 15:04:00,80.4,72.9,29.95,NE,52,0.0,4.0,78,0.00,,---,0.32,VWS V13.01,2013-08-13 20:04:00,
2013-08-13 15:09:00,80.8,72.9,29.95,NE,52,0.0,3.0,77,0.00,,---,0.32,VWS V13.01,2013-08-13 20:09:00,
2013-08-13 15:14:00,81.0,73.1,29.94,ENE,65,1.0,6.0,77,0.00,,---,0.32,VWS V13.01,2013-08-13 20:14:00,
2013-08-13 15:19:00,81.1,73.6,29.94,NE,44,6.0,10.0,78,0.00,,---,0.32,VWS V13.01,2013-08-13 20:19:00,
2013-08-13 15:24:00,80.9,73.0,29.94,NE,41,3.0,13.0,77,0.00,,---,0.32,VWS V13.01,2013-08-13 20:24:00,
2013-08-13 15:29:00,80.1,72.6,29.94,NE,44,2.0,13.0,78,0.00,,---,0.32,VWS V13.01,2013-08-13 20:29:00,
2013-08-13 15:34:00,79.5,72.4,29.94,NE,46,0.0,13.0,79,0.00,,---,0.32,VWS V13.01,2013-08-13 20:34:00,
2013-08-13 15:39:00,79.1,72.4,29.94,NE,45,0.0,4.0,80,0.00,,---,0.32,VWS V13.01,2013-08-13 20:39:00,
2013-08-13 15:44:00,78.9,72.6,29.94,NE,46,0.0,4.0,81,0.00,,---,0.32,VWS V13.01,2013-08-13 20:44:00,
2013-08-13 15:50:00,78.8,73.2,29.94,NE,46,0.0,4.0,83,0.00,,---,0.32,VWS V13.01,2013-08-13 20:50:00,
2013-08-13 15:55:00,78.7,72.8,29.94,NE,46,0.0,4.0,82,0.00,,---,0.32,VWS V13.01,2013-08-13 20:55:00,
2013-08-13 16:00:00,78.7,72.8,29.94,NE,45,0.0,4.0,82,0.00,,---,0.32,VWS V13.01,2013-08-13 21:00:00,
2013-08-13 16:05:00,78.7,72.8,29.94,NE,46,1.0,4.0,82,0.00,,---,0.32,VWS V13.01,2013-08-13 21:05:00,
2013-08-13 16:10:00,79.1,73.8,29.94,NE,46,4.0,5.0,84,0.00,,---,0.32,VWS V13.01,2013-08-13 21:10:00,
2013-08-13 16:15:00,80.1,73.0,29.93,NE,48,3.0,10.0,79,0.00,,---,0.32,VWS V13.01,2013-08-13 21:15:00,
2013-08-13 16:20:00,80.3,72.4,29.93,NE,40,5.0,10.0,77,0.00,,---,0.32,VWS V13.01,2013-08-13 21:20:00,
2013-08-13 16:25:00,80.2,72.7,29.93,NE,45,5.0,10.0,78,0.00,,---,0.32,VWS V13.01,2013-08-13 21:25:00,
2013-08-13 16:30:00,80.1,72.2,29.93,NE,41,4.0,10.0,77,0.00,,---,0.32,VWS V13.01,2013-08-13 21:30:00,
2013-08-13 16:35:00,80.2,73.1,29.93,NE,41,5.0,10.0,79,0.00,,---,0.32,VWS V13.01,2013-08-13 21:35:00,
2013-08-13 16:40:00,80.9,73.8,29.93,NE,41,0.0,5.0,79,0.00,,---,0.32,VWS V13.01,2013-08-13 21:40:00,
2013-08-13 16:45:00,81.0,72.7,29.93,NE,42,2.0,5.0,76,0.00,,---,0.32,VWS V13.01,2013-08-13 21:45:00,
2013-08-13 16:50:00,80.9,73.4,29.93,NE,41,3.0,7.0,78,0.00,,---,0.32,VWS V13.01,2013-08-13 21:50:00,
2013-08-13 16:55:00,81.1,73.6,29.93,NE,42,7.0,7.0,78,0.00,,---,0.32,VWS V13.01,2013-08-13 21:55:00,
2013-08-13 17:00:00,81.1,73.2,29.93,NE,42,0.0,7.0,77,0.00,,---,0.32,VWS V13.01,2013-08-13 22:00:00,
2013-08-13 17:05:00,81.4,73.1,29.93,NE,42,1.0,7.0,76,0.00,,---,0.32,VWS V13.01,2013-08-13 22:05:00,
2013-08-13 17:10:00,81.7,72.6,29.92,NE,42,1.0,6.0,74,0.00,,---,0.32,VWS V13.01,2013-08-13 22:10:00,
2013-08-13 17:15:00,81.5,72.4,29.92,NE,55,4.0,7.0,74,0.00,,---,0.32,VWS V13.01,2013-08-13 22:15:00,
2013-08-13 17:20:00,81.5,71.6,29.92,NE,55,0.0,7.0,72,0.00,,---,0.32,VWS V13.01,2013-08-13 22:20:00,
2013-08-13 17:25:00,81.6,72.1,29.92,NE,55,2.0,7.0,73,0.00,,---,0.32,VWS V13.01,2013-08-13 22:25:00,
2013-08-13 17:30:00,81.6,72.1,29.92,NE,55,0.0,7.0,73,0.00,,---,0.32,VWS V13.01,2013-08-13 22:30:00,
2013-08-13 17:35:00,81.7,71.8,29.92,ENE,65,2.0,7.0,72,0.00,,---,0.32,VWS V13.01,2013-08-13 22:35:00,
2013-08-13 17:40:00,81.8,72.7,29.92,ENE,65,0.0,0.0,74,0.00,,---,0.32,VWS V13.01,2013-08-13 22:40:00,
2013-08-13 17:45:00,81.8,72.3,29.92,ENE,65,0.0,4.0,73,0.00,,---,0.32,VWS V13.01,2013-08-13 22:45:00,
2013-08-13 17:50:00,81.8,72.3,29.92,ENE,65,0.0,4.0,73,0.00,,---,0.32,VWS V13.01,2013-08-13 22:50:00,
2013-08-13 17:55:00,81.7,72.6,29.92,ENE,70,2.0,6.0,74,0.00,,---,0.32,VWS V13.01,2013-08-13 22:55:00,
2013-08-13 18:00:00,81.5,72.0,29.92,ENE,70,0.0,6.0,73,0.00,,---,0.32,VWS V13.01,2013-08-13 23:00:00,
2013-08-13 18:05:00,81.3,72.2,29.92,ENE,69,0.0,6.0,74,0.00,,---,0.32,VWS V13.01,2013-08-13 23:05:00,
2013-08-13 18:10:00,81.2,72.5,29.92,ENE,70,0.0,5.0,75,0.00,,---,0.32,VWS V13.01,2013-08-13 23:10:00,
2013-08-13 18:15:00,80.9,72.2,29.92,ENE,70,0.0,5.0,75,0.00,,---,0.32,VWS V13.01,2013-08-13 23:15:00,
2013-08-13 18:20:00,80.8,72.1,29.92,ENE,70,0.0,5.0,75,0.00,,---,0.32,VWS V13.01,2013-08-13 23:20:00,
2013-08-13 18:25:00,80.6,72.3,29.92,ENE,69,2.0,5.0,76,0.00,,---,0.32,VWS V13.01,2013-08-13 23:25:00,
2013-08-13 18:30:00,80.5,72.6,29.93,ENE,70,0.0,5.0,77,0.00,,---,0.32,VWS V13.01,2013-08-13 23:30:00,
2013-08-13 18:35:00,80.3,72.4,29.93,ENE,70,0.0,5.0,77,0.00,,---,0.32,VWS V13.01,2013-08-13 23:35:00,
2013-08-13 18:40:00,80.2,72.3,29.93,ENE,70,0.0,0.0,77,0.00,,---,0.32,VWS V13.01,2013-08-13 23:40:00,
2013-08-13 18:45:00,80.0,72.9,29.93,ENE,70,0.0,0.0,79,0.00,,---,0.32,VWS V13.01,2013-08-13 23:45:00,
2013-08-13 18:50:00,79.9,73.2,29.93,ENE,69,0.0,0.0,80,0.00,,---,0.32,VWS V13.01,2013-08-13 23:50:00,
2013-08-13 18:55:00,79.7,73.0,29.94,ENE,69,0.0,0.0,80,0.00,,---,0.32,VWS V13.01,2013-08-13 23:55:00,
2013-08-13 19:00:00,79.6,73.3,29.94,ENE,70,0.0,0.0,81,0.00,,---,0.32,VWS V13.01,2013-08-14 00:00:00,
2013-08-13 19:05:00,79.3,73.3,29.94,ENE,70,0.0,0.0,82,0.00,,---,0.32,VWS V13.01,2013-08-14 00:05:00,
2013-08-13 19:10:00,79.1,73.1,29.94,ENE,70,0.0,0.0,82,0.00,,---,0.33,VWS V13.01,2013-08-14 00:10:00,
2013-08-13 19:15:00,78.8,73.2,29.94,ENE,69,3.0,5.0,83,0.08,,---,0.40,VWS V13.01,2013-08-14 00:15:00,
2013-08-13 19:20:00,78.4,73.5,29.95,NE,46,2.0,9.0,85,0.19,,---,0.51,VWS V13.01,2013-08-14 00:20:00,
2013-08-13 19:25:00,77.5,72.6,29.95,NE,42,3.0,9.0,85,0.26,,---,0.58,VWS V13.01,2013-08-14 00:25:00,
2013-08-13 19:30:00,76.5,71.7,29.95,NE,46,0.0,9.0,85,0.28,,---,0.60,VWS V13.01,2013-08-14 00:30:00,
2013-08-13 19:35:00,75.9,71.1,29.95,NE,46,0.0,9.0,85,0.32,,---,0.64,VWS V13.01,2013-08-14 00:35:00,
2013-08-13 19:40:00,75.4,70.9,29.95,NE,45,0.0,2.0,86,0.36,,---,0.68,VWS V13.01,2013-08-14 00:40:00,
2013-08-13 19:45:00,75.0,70.9,29.95,NE,46,0.0,2.0,87,0.37,,---,0.69,VWS V13.01,2013-08-14 00:45:00,
2013-08-13 19:50:00,74.7,70.6,29.96,NE,46,0.0,2.0,87,0.37,,---,0.69,VWS V13.01,2013-08-14 00:50:00,
2013-08-13 19:55:00,74.4,70.3,29.96,NE,45,0.0,2.0,87,0.37,,---,0.69,VWS V13.01,2013-08-14 00:55:00,
2013-08-13 20:00:00,74.1,70.0,29.96,NE,46,0.0,2.0,87,0.37,,---,0.69,VWS V13.01,2013-08-14 01:00:00,
2013-08-13 20:05:00,73.9,70.1,29.96,NE,46,0.0,2.0,88,0.37,,---,0.69,VWS V13.01,2013-08-14 01:05:00,
2013-08-13 20:10:00,73.8,70.0,29.97,NE,45,0.0,0.0,88,0.37,,---,0.69,VWS V13.01,2013-08-14 01:10:00,
2013-08-13 20:15:00,73.7,69.9,29.97,NE,46,0.0,0.0,88,0.37,,---,0.69,VWS V13.01,2013-08-14 01:15:00,
2013-08-13 20:20:00,73.6,70.2,29.97,NE,45,0.0,0.0,89,0.37,,---,0.69,VWS V13.01,2013-08-14 01:20:00,
2013-08-13 20:25:00,73.5,70.1,29.97,NE,46,0.0,0.0,89,0.37,,---,0.69,VWS V13.01,2013-08-14 01:25:00,
2013-08-13 20:30:00,73.4,70.3,29.97,NE,45,0.0,0.0,90,0.37,,---,0.69,VWS V13.01,2013-08-14 01:30:00,
2013-08-13 20:35:00,73.3,70.2,29.98,NE,45,0.0,0.0,90,0.37,,---,0.69,VWS V13.01,2013-08-14 01:35:00,
2013-08-13 20:40:00,73.1,70.0,29.98,NE,46,0.0,0.0,90,0.02,,---,0.69,VWS V13.01,2013-08-14 01:40:00,
2013-08-13 20:45:00,73.0,69.9,29.98,NE,45,0.0,0.0,90,0.02,,---,0.69,VWS V13.01,2013-08-14 01:45:00,
2013-08-13 20:50:00,72.9,69.8,29.97,NE,45,0.0,0.0,90,0.02,,---,0.69,VWS V13.01,2013-08-14 01:50:00,
2013-08-13 20:55:00,72.9,69.8,29.97,NE,46,0.0,0.0,90,0.02,,---,0.69,VWS V13.01,2013-08-14 01:55:00,
2013-08-13 21:00:00,72.8,70.0,29.97,NE,46,0.0,0.0,91,0.02,,---,0.69,VWS V13.01,2013-08-14 02:00:00,
2013-08-13 21:06:00,72.8,70.0,29.98,NE,46,0.0,0.0,91,0.02,,---,0.69,VWS V13.01,2013-08-14 02:06:00,
2013-08-13 21:11:00,72.7,69.9,29.98,NE,45,0.0,0.0,91,0.00,,---,0.69,VWS V13.01,2013-08-14 02:11:00,
2013-08-13 21:16:00,72.6,69.8,29.98,NE,46,0.0,0.0,91,0.00,,---,0.69,VWS V13.01,2013-08-14 02:16:00,
2013-08-13 21:21:00,72.6,69.8,29.98,NE,46,0.0,0.0,91,0.00,,---,0.69,VWS V13.01,2013-08-14 02:21:00,
2013-08-13 21:26:00,72.6,69.8,29.99,NE,46,0.0,0.0,91,0.00,,---,0.69,VWS V13.01,2013-08-14 02:26:00,
2013-08-13 21:31:00,72.6,69.8,29.99,NE,45,0.0,0.0,91,0.00,,---,0.69,VWS V13.01,2013-08-14 02:31:00,
2013-08-13 21:36:00,72.6,69.8,29.99,NE,46,0.0,0.0,91,0.00,,---,0.69,VWS V13.01,2013-08-14 02:36:00,
2013-08-13 21:41:00,72.6,70.2,30.00,NE,46,0.0,0.0,92,0.00,,---,0.69,VWS V13.01,2013-08-14 02:41:00,
2013-08-13 21:43:00,72.6,70.2,30.00,NE,46,0.0,0.0,92,0.00,,---,0.69,VWS V13.01,2013-08-14 02:43:00,
2013-08-13 21:48:00,72.6,70.2,30.00,NE,46,0.0,0.0,92,0.00,,---,0.69,VWS V13.01,2013-08-14 02:48:00,
2013-08-13 21:53:00,72.6,70.2,30.00,NE,45,0.0,0.0,92,0.00,,---,0.69,VWS V13.01,2013-08-14 02:53:00,
2013-08-13 21:58:00,72.7,70.2,30.00,NE,46,0.0,0.0,92,0.00,,---,0.69,VWS V13.01,2013-08-14 02:58:00,
2013-08-13 22:03:00,72.7,70.2,30.01,NE,46,0.0,0.0,92,0.00,,---,0.69,VWS V13.01,2013-08-14 03:03:00,
2013-08-13 22:08:00,72.7,70.2,30.01,NE,46,0.0,0.0,92,0.00,,---,0.69,VWS V13.01,2013-08-14 03:08:00,
2013-08-13 22:13:00,72.7,70.2,30.00,NE,46,0.0,0.0,92,0.00,,---,0.69,VWS V13.01,2013-08-14 03:13:00,
2013-08-13 22:18:00,72.8,70.7,30.00,NE,46,0.0,0.0,93,0.00,,---,0.69,VWS V13.01,2013-08-14 03:18:00,
2013-08-13 22:23:00,72.8,70.7,30.00,NE,46,0.0,0.0,93,0.00,,---,0.69,VWS V13.01,2013-08-14 03:23:00,
2013-08-13 22:28:00,72.9,70.8,30.00,NE,46,0.0,0.0,93,0.00,,---,0.69,VWS V13.01,2013-08-14 03:28:00,
2013-08-13 22:33:00,72.9,70.8,30.00,NE,46,0.0,0.0,93,0.00,,---,0.69,VWS V13.01,2013-08-14 03:33:00,
2013-08-13 22:38:00,72.9,70.8,30.00,NE,46,0.0,0.0,93,0.00,,---,0.69,VWS V13.01,2013-08-14 03:38:00,
2013-08-13 22:43:00,72.9,70.8,30.00,NE,45,0.0,0.0,93,0.00,,---,0.69,VWS V13.01,2013-08-14 03:43:00,
2013-08-13 22:48:00,73.0,70.9,30.00,NE,45,0.0,0.0,93,0.00,,---,0.69,VWS V13.01,2013-08-14 03:48:00,
2013-08-13 22:53:00,73.0,70.9,29.99,NE,46,0.0,0.0,93,0.00,,---,0.69,VWS V13.01,2013-08-14 03:53:00,
2013-08-13 22:58:00,73.0,70.9,29.99,NE,46,0.0,0.0,93,0.00,,---,0.69,VWS V13.01,2013-08-14 03:58:00,
2013-08-13 23:01:00,73.0,70.9,29.99,NE,45,0.0,0.0,93,0.00,,---,0.69,VWS V13.01,2013-08-14 04:01:00,
2013-08-13 23:02:00,73.0,70.9,29.99,NE,45,0.0,0.0,93,0.00,,---,0.69,VWS V13.01,2013-08-14 04:02:00,
2013-08-13 23:07:00,73.0,70.9,30.00,NE,45,0.0,0.0,93,0.00,,---,0.69,VWS V13.01,2013-08-14 04:07:00,
2013-08-13 23:12:00,73.0,70.9,29.99,NE,46,0.0,0.0,93,0.00,,---,0.69,VWS V13.01,2013-08-14 04:12:00,
2013-08-13 23:17:00,73.0,70.9,29.99,NE,46,0.0,2.0,93,0.00,,---,0.69,VWS V13.01,2013-08-14 04:17:00,
2013-08-13 23:22:00,73.0,70.9,29.99,NE,46,0.0,3.0,93,0.00,,---,0.69,VWS V13.01,2013-08-14 04:22:00,
2013-08-13 23:27:00,72.9,70.8,29.99,NE,45,3.0,5.0,93,0.00,,---,0.69,VWS V13.01,2013-08-14 04:27:00,
2013-08-13 23:32:00,72.9,71.1,29.99,NE,46,2.0,5.0,94,0.00,,---,0.69,VWS V13.01,2013-08-14 04:32:00,
2013-08-13 23:37:00,72.8,70.7,29.99,NE,45,2.0,6.0,93,0.00,,---,0.69,VWS V13.01,2013-08-14 04:37:00,
2013-08-13 23:42:00,72.8,70.7,30.00,NE,48,0.0,6.0,93,0.00,,---,0.69,VWS V13.01,2013-08-14 04:42:00,
2013-08-13 23:47:00,72.8,70.7,30.00,NE,48,0.0,6.0,93,0.00,,---,0.69,VWS V13.01,2013-08-14 04:47:00,
2013-08-13 23:52:00,72.7,70.6,30.00,NE,48,0.0,6.0,93,0.00,,---,0.69,VWS V13.01,2013-08-14 04:52:00,
2013-08-13 23:57:00,72.7,70.6,30.00,NE,48,0.0,6.0,93,0.00,,---,0.69,VWS V13.01,2013-08-14 04:57:00,